Weather in Strelitsa

Russia / Voronezh Oblast     51°36′26″N   38°54′13″E
temp.,
°C
wind,
m/s
gust,
m/s
humid.,
%
clouds,
%
prec.,
mm/h
press.,
hPa
HPBL,
m
25 february, thu
thu2500:00−12ssw5993100 0.3 1035390
03:00−11ssw51094100 0.7 1033372
06:00−9sw51092100 0.1 1030348
09:00−7sw61292100 0.2 1028373
12:00−2sw61193100 0.1 1025457
15:00+1sw71396100 0.1 1022373
18:00+2w71498100 0.3 1020401
21:00+2w51199100 0.3 1020303
26 february, fri
fri2600:00+2w51298100 0.1 1020310
03:00+2wnw51298100 0.1 1020305
06:00+2w61298100 0.0 1019301
09:00+2w51099100 0.0 1019274
12:00+3w612100100 0.0 1017376
15:00+3wsw81597100 0.0 1015474
18:00+3w71597100 0.1 1013487
21:00+3w61495100 0.3 1013404
27 february, sat
sat2700:00+2wnw51295100 0.0 1011450
03:00+1w51193100 0.0 1011392
06:00+1w51193100 0.0 1009439
09:00+1w61296100 0.1 1009600
12:00+1w51192100 0.0 1008600
15:00+2w61293100 0.1 1008584
18:00+1wnw6119598 0.1 1008484
21:00+1wnw599799 0.3 1009401
28 february, sun
sun2800:000nw4892100 0.0 1010463
03:000nnw489699 0.2 1011424
06:00−1nnw489493 0.1 1013465
09:00−3n468692 0.1 1015526
12:00−2nnw568097 0.0 1016638
15:00−2nnw687998 0.1 1018640
18:00−3nnw6884100 0.0 1019732
21:00−2n488599 0.1 1022851
1 march, mon
mon100:00−3nnw489079 0.0 1023532
03:00−4nnw379484 0.1 1024394
06:00−4n478898 0.1 1026558
09:00−4n368166 0.1 1028559
12:00−3n467285 0.0 1029935
15:00−2nnw457193 0.1 1030893
18:00−3nw368087 0.0 1030529
21:00−4wnw368643 0.0 1031317